"read_dt","SO2 (ppb)","flags","PMT voltage (V)","lamp voltage (V)","lamp intensity (Hz)","internal temp (C)","react chamber temp (C)","sample flow (l/min)","pres (mmHg)","SO2 bkg (ppb)","SO2 coefficient"
2014-05-09 00:00:00,3068E-2,5C000410,-0724,1105,9555,025.2,045.2,0.162,750.7,01.17,0.508
2014-05-09 00:01:00,3071E-2,5C000410,-0724,1105,9468,025.2,045.2,0.163,750.8,01.17,0.508
2014-05-09 00:02:00,3088E-2,5C000410,-0724,1106,9559,025.2,045.3,0.162,750.8,01.17,0.508
2014-05-09 00:03:00,3110E-2,5C000410,-0724,1105,9350,025.3,045.2,0.162,750.6,01.17,0.508
2014-05-09 00:04:00,3083E-2,5C000410,-0724,1106,9368,025.3,045.2,0.162,750.7,01.17,0.508
2014-05-09 00:05:00,3075E-2,5C000410,-0724,1105,9450,025.2,045.2,0.162,750.8,01.17,0.508
2014-05-09 00:06:00,3152E-2,5C000410,-0724,1105,9340,025.3,045.2,0.162,750.8,01.17,0.508
2014-05-09 00:07:00,3058E-2,5C000410,-0724,1105,9524,025.3,045.2,0.162,750.7,01.17,0.508
2014-05-09 00:08:00,3155E-2,5C000410,-0724,1106,9519,025.3,045.2,0.162,750.7,01.17,0.508
2014-05-09 00:09:00,3105E-2,5C000410,-0724,1105,9569,025.3,045.2,0.162,750.7,01.17,0.508
2014-05-09 00:10:00,3090E-2,5C000410,-0724,1105,9568,025.3,045.2,0.162,750.7,01.17,0.508
2014-05-09 00:11:00,3149E-2,5C000410,-0724,1105,9498,025.3,045.2,0.162,750.7,01.17,0.508
2014-05-09 00:12:00,3142E-2,5C000410,-0724,1106,9388,025.3,045.2,0.162,750.7,01.17,0.508
2014-05-09 00:13:00,3131E-2,5C000410,-0724,1106,9711,025.3,045.2,0.162,750.7,01.17,0.508
2014-05-09 00:14:00,3141E-2,5C000410,-0724,1106,9593,025.3,045.2,0.162,750.7,01.17,0.508
2014-05-09 00:15:00,3146E-2,5C000410,-0724,1104,9383,025.3,045.2,0.162,750.8,01.17,0.508
2014-05-09 00:16:00,3092E-2,5C000410,-0724,1105,9471,025.3,045.2,0.162,750.8,01.17,0.508
2014-05-09 00:17:00,3120E-2,5C000410,-0724,1106,9603,025.3,045.2,0.162,750.7,01.17,0.508
2014-05-09 00:18:00,3080E-2,5C000410,-0724,1105,9445,025.3,045.2,0.162,750.7,01.17,0.508
2014-05-09 00:19:00,3084E-2,5C000410,-0724,1106,9350,025.3,045.2,0.162,750.8,01.17,0.508
2014-05-09 00:20:00,3105E-2,5C000410,-0724,1105,9323,025.3,045.2,0.162,750.7,01.17,0.508
2014-05-09 00:21:00,3087E-2,5C000410,-0724,1107,9440,025.3,045.2,0.162,750.7,01.17,0.508
2014-05-09 00:22:00,3105E-2,5C000410,-0724,1104,9532,025.3,045.2,0.162,750.7,01.17,0.508
2014-05-09 00:23:00,3114E-2,5C000410,-0724,1105,9457,025.4,045.2,0.162,750.7,01.17,0.508
2014-05-09 00:24:00,3151E-2,5C000410,-0724,1107,9585,025.3,045.2,0.162,750.7,01.17,0.508
2014-05-09 00:25:00,3098E-2,5C000410,-0724,1107,9368,025.4,045.2,0.162,750.8,01.17,0.508
2014-05-09 00:26:00,3104E-2,5C000410,-0724,1107,9522,025.4,045.2,0.162,750.8,01.17,0.508
2014-05-09 00:27:00,3137E-2,5C000410,-0724,1106,9609,025.3,045.2,0.162,750.8,01.17,0.508
2014-05-09 00:28:00,3107E-2,5C000410,-0724,1107,9475,025.4,045.2,0.162,750.8,01.17,0.508
2014-05-09 00:29:00,3103E-2,5C000410,-0724,1107,9462,025.4,045.2,0.162,750.8,01.17,0.508
2014-05-09 00:30:00,3130E-2,5C000410,-0724,1108,9276,025.4,045.2,0.162,750.8,01.17,0.508
2014-05-09 00:31:00,3111E-2,5C000410,-0724,1108,9313,025.4,045.2,0.162,750.8,01.17,0.508
2014-05-09 00:32:00,3134E-2,5C000410,-0724,1106,9489,025.4,045.2,0.162,750.8,01.17,0.508
2014-05-09 00:33:00,3101E-2,5C000410,-0724,1106,9421,025.4,045.2,0.162,750.8,01.17,0.508
2014-05-09 00:34:00,3143E-2,5C000410,-0724,1106,9531,025.4,045.2,0.162,750.8,01.17,0.508
2014-05-09 00:35:00,3146E-2,5C000410,-0724,1107,9238,025.4,045.2,0.162,750.8,01.17,0.508
2014-05-09 00:36:00,3101E-2,5C000410,-0724,1106,9562,025.4,045.2,0.162,750.8,01.17,0.508
2014-05-09 00:37:00,3117E-2,5C000410,-0724,1106,9495,025.4,045.2,0.162,750.9,01.17,0.508
2014-05-09 00:38:00,3133E-2,5C000410,-0724,1106,9669,025.4,045.2,0.162,750.9,01.17,0.508
2014-05-09 00:39:00,3136E-2,5C000410,-0724,1107,9552,025.4,045.2,0.162,750.8,01.17,0.508
2014-05-09 00:40:00,3119E-2,5C000410,-0724,1106,9284,025.4,045.2,0.162,750.8,01.17,0.508
2014-05-09 00:41:00,3107E-2,5C000410,-0724,1107,9518,025.4,045.2,0.162,750.9,01.17,0.508
2014-05-09 00:42:00,3099E-2,5C000410,-0724,1105,9453,025.4,045.3,0.162,750.9,01.17,0.508
2014-05-09 00:43:00,3126E-2,5C000410,-0724,1105,9397,025.4,045.2,0.162,750.8,01.17,0.508
2014-05-09 00:44:00,3140E-2,5C000410,-0724,1107,9477,025.4,045.2,0.162,750.8,01.17,0.508
2014-05-09 00:45:00,3115E-2,5C000410,-0724,1107,9307,025.4,045.2,0.162,750.8,01.17,0.508
2014-05-09 00:46:00,3117E-2,5C000410,-0724,1107,9512,025.4,045.2,0.162,750.9,01.17,0.508
2014-05-09 00:47:00,3118E-2,5C000410,-0724,1107,9552,025.4,045.2,0.162,751.0,01.17,0.508
2014-05-09 00:48:00,3117E-2,5C000410,-0724,1106,9500,025.5,045.3,0.162,750.9,01.17,0.508
2014-05-09 00:49:00,3115E-2,5C000410,-0724,1106,9490,025.4,045.2,0.162,750.8,01.17,0.508
2014-05-09 00:50:00,3110E-2,5C000410,-0724,1106,9501,025.5,045.2,0.162,750.9,01.17,0.508
2014-05-09 00:51:00,3005E-2,5C000400,-0724,1024,10361,025.5,045.2,0.162,750.9,01.17,0.508
2014-05-09 00:52:00,2861E-2,5C000400,-0724,1016,10401,025.5,045.2,0.162,750.9,01.17,0.508
2014-05-09 00:53:00,2863E-2,5C000400,-0724,1018,10384,025.5,045.2,0.162,750.9,01.17,0.508
2014-05-09 00:54:00,2820E-2,5C000400,-0724,1016,10449,025.5,045.2,0.162,750.9,01.17,0.508
2014-05-09 00:55:00,2835E-2,5C000400,-0724,1018,10125,025.5,045.2,0.162,750.8,01.17,0.508
2014-05-09 00:56:00,2847E-2,5C000400,-0724,1019,10162,025.5,045.2,0.162,750.9,01.17,0.508
2014-05-09 00:57:00,2844E-2,5C000400,-0724,1018,10277,025.5,045.2,0.162,750.9,01.17,0.508
2014-05-09 00:58:00,2805E-2,5C000400,-0724,1019,10550,025.5,045.2,0.162,750.9,01.17,0.508
2014-05-09 00:59:00,2812E-2,5C000400,-0724,1020,10214,025.5,045.2,0.162,750.9,01.17,0.508
2014-05-09 01:00:00,2824E-2,5C000400,-0724,1020,10418,025.5,045.2,0.162,750.9,01.17,0.508
2014-05-09 01:01:00,2843E-2,5C000400,-0724,1021,10320,025.5,045.2,0.162,750.9,01.17,0.508
2014-05-09 01:02:00,2874E-2,5C000400,-0724,1021,10344,025.5,045.2,0.162,751.0,01.17,0.508
2014-05-09 01:03:00,2848E-2,5C000400,-0724,1021,10238,025.6,045.2,0.162,750.9,01.17,0.508
2014-05-09 01:04:00,2843E-2,5C000400,-0724,1022,10116,025.5,045.2,0.162,750.9,01.17,0.508
2014-05-09 01:05:00,2832E-2,5C000400,-0724,1022,10229,025.6,045.2,0.162,750.9,01.17,0.508
2014-05-09 01:06:00,2815E-2,5C000400,-0724,1023,10409,025.6,045.2,0.162,751.0,01.17,0.508
2014-05-09 01:07:00,2812E-2,5C000400,-0724,1023,10382,025.6,045.2,0.162,750.9,01.17,0.508
2014-05-09 01:08:00,2802E-2,5C000400,-0724,1024,10070,025.6,045.2,0.162,750.9,01.17,0.508
2014-05-09 01:09:00,2805E-2,5C000400,-0724,1024,10215,025.6,045.2,0.162,750.9,01.17,0.508
2014-05-09 01:10:00,2787E-2,5C000400,-0724,1025,10350,025.6,045.2,0.162,751.0,01.17,0.508
2014-05-09 01:11:00,2761E-2,5C000400,-0724,1025,10302,025.6,045.2,0.162,750.9,01.17,0.508
2014-05-09 01:12:00,2784E-2,5C000400,-0724,1027,10378,025.6,045.2,0.162,750.9,01.17,0.508
2014-05-09 01:13:00,2867E-2,5C000400,-0724,1028,10246,025.6,045.2,0.162,750.9,01.17,0.508
2014-05-09 01:14:00,2815E-2,5C000400,-0724,1028,10375,025.6,045.3,0.162,751.0,01.17,0.508
2014-05-09 01:15:00,2821E-2,5C000400,-0724,1030,10202,025.6,045.2,0.161,750.9,01.17,0.508
2014-05-09 01:16:00,2779E-2,5C000400,-0724,1029,10217,025.6,045.2,0.162,750.9,01.17,0.508
2014-05-09 01:17:00,2763E-2,5C000400,-0724,1029,10255,025.6,045.2,0.161,750.9,01.17,0.508
2014-05-09 01:18:00,2797E-2,5C000400,-0724,1029,10306,025.6,045.2,0.161,750.9,01.17,0.508
2014-05-09 01:19:00,2785E-2,5C000400,-0724,1030,10281,025.6,045.2,0.161,750.8,01.17,0.508
2014-05-09 01:20:00,2835E-2,5C000400,-0724,1031,10186,025.7,045.2,0.161,750.9,01.17,0.508
2014-05-09 01:21:00,2803E-2,5C000400,-0724,1031,10222,025.6,045.2,0.161,750.9,01.17,0.508
2014-05-09 01:22:00,2824E-2,5C000400,-0724,1032,10284,025.7,045.2,0.161,750.9,01.17,0.508
2014-05-09 01:23:00,2791E-2,5C000400,-0724,1032,10307,025.7,045.2,0.161,750.9,01.17,0.508
2014-05-09 01:24:00,2837E-2,5C000400,-0724,1034,10239,025.7,045.2,0.161,750.9,01.17,0.508
2014-05-09 01:25:00,2833E-2,5C000400,-0724,1032,10196,025.7,045.2,0.161,750.9,01.17,0.508
2014-05-09 01:26:00,2814E-2,5C000400,-0724,1034,10232,025.7,045.2,0.161,751.0,01.17,0.508
2014-05-09 01:27:00,2851E-2,5C000400,-0724,1035,10152,025.7,045.3,0.161,751.0,01.17,0.508
2014-05-09 01:28:00,2839E-2,5C000400,-0724,1034,10118,025.7,045.2,0.161,750.9,01.17,0.508
2014-05-09 01:29:00,2805E-2,5C000400,-0724,1036,10129,025.7,045.2,0.161,750.9,01.17,0.508
2014-05-09 01:30:00,2842E-2,5C000400,-0724,1034,10187,025.7,045.2,0.161,750.9,01.17,0.508
2014-05-09 01:31:00,2846E-2,5C000400,-0724,1035,10245,025.7,045.2,0.161,750.9,01.17,0.508
2014-05-09 01:32:00,2828E-2,5C000400,-0724,1036,10168,025.7,045.2,0.161,750.9,01.17,0.508
2014-05-09 01:33:00,2819E-2,5C000400,-0724,1036,10187,025.7,045.2,0.161,750.9,01.17,0.508
2014-05-09 01:34:00,2809E-2,5C000400,-0724,1037,10065,025.7,045.3,0.161,750.9,01.17,0.508
2014-05-09 01:35:00,2795E-2,5C000400,-0724,1036,10113,025.7,045.3,0.161,751.0,01.17,0.508
2014-05-09 01:36:00,2848E-2,5C000400,-0724,1036,10186,025.8,045.3,0.161,750.9,01.17,0.508
2014-05-09 01:37:00,2828E-2,5C000410,-0724,1036,9986,025.8,045.3,0.161,750.8,01.17,0.508
2014-05-09 01:38:00,2781E-2,5C000400,-0724,1037,10009,025.8,045.2,0.161,750.9,01.17,0.508
2014-05-09 01:39:00,2804E-2,5C000400,-0724,1036,10064,025.8,045.2,0.161,750.9,01.17,0.508
2014-05-09 01:40:00,2802E-2,5C000400,-0724,1037,10048,025.8,045.2,0.161,750.9,01.17,0.508
2014-05-09 01:41:00,2874E-2,5C000400,-0724,1039,10166,025.8,045.2,0.161,750.9,01.17,0.508
2014-05-09 01:42:00,2816E-2,5C000400,-0724,1039,10236,025.8,045.2,0.161,750.9,01.17,0.508
2014-05-09 01:43:00,2811E-2,5C000400,-0724,1038,9977,025.8,045.2,0.161,750.9,01.17,0.508
2014-05-09 01:44:00,2837E-2,5C000400,-0724,1039,10123,025.8,045.2,0.161,750.9,01.17,0.508
2014-05-09 01:45:00,2822E-2,5C000410,-0724,1040,10185,025.8,045.2,0.161,750.9,01.17,0.508
2014-05-09 01:46:00,2847E-2,5C000400,-0724,1040,10078,025.8,045.2,0.161,750.9,01.17,0.508
2014-05-09 01:47:00,2830E-2,5C000400,-0724,1040,10090,025.8,045.2,0.161,750.9,01.17,0.508
2014-05-09 01:48:00,2776E-2,5C000400,-0724,1041,10141,025.9,045.2,0.161,750.9,01.17,0.508
2014-05-09 01:49:00,2857E-2,5C000400,-0724,1041,10041,025.9,045.2,0.161,750.9,01.17,0.508
2014-05-09 01:50:00,2814E-2,5C000400,-0724,1041,10041,025.9,045.2,0.161,750.9,01.17,0.508
2014-05-09 01:51:00,2859E-2,5C000410,-0724,1041,10125,025.9,045.3,0.161,750.9,01.17,0.508
2014-05-09 01:52:00,2833E-2,5C000400,-0724,1042,10133,025.9,045.2,0.161,750.9,01.17,0.508
2014-05-09 01:53:00,2840E-2,5C000400,-0724,1042,10080,025.9,045.2,0.161,750.9,01.17,0.508
2014-05-09 01:54:00,2869E-2,5C000410,-0724,1043,9982,025.9,045.2,0.161,750.9,01.17,0.508
2014-05-09 01:55:00,2823E-2,5C000400,-0724,1044,10164,025.9,045.2,0.161,750.9,01.17,0.508
2014-05-09 01:56:00,2860E-2,5C000400,-0724,1045,10119,025.9,045.2,0.161,750.9,01.17,0.508
2014-05-09 01:57:00,2845E-2,5C000400,-0724,1044,10119,025.9,045.3,0.161,750.8,01.17,0.508
2014-05-09 01:58:00,2852E-2,5C000400,-0724,1045,10246,025.9,045.2,0.161,750.9,01.17,0.508
2014-05-09 01:59:00,2839E-2,5C000400,-0724,1046,10008,025.9,045.2,0.161,751.0,01.17,0.508
2014-05-09 02:00:00,2849E-2,5C000410,-0724,1045,9953,025.9,045.3,0.161,751.0,01.17,0.508
2014-05-09 02:01:00,2857E-2,5C000410,-0724,1046,9959,025.9,045.3,0.161,750.9,01.17,0.508
2014-05-09 02:02:00,2839E-2,5C000400,-0724,1048,10140,026.0,045.3,0.161,750.9,01.17,0.508
2014-05-09 02:03:00,2910E-2,5C000410,-0724,1047,10083,026.0,045.3,0.161,751.0,01.17,0.508
2014-05-09 02:04:00,2839E-2,5C000400,-0724,1048,10067,026.0,045.3,0.161,750.9,01.17,0.508
2014-05-09 02:05:00,2887E-2,5C000400,-0724,1048,10075,026.0,045.2,0.160,750.9,01.17,0.508
2014-05-09 02:06:00,2886E-2,5C000410,-0724,1048,9914,026.0,045.2,0.161,750.9,01.17,0.508
2014-05-09 02:07:00,2853E-2,5C000400,-0724,1049,10123,026.0,045.3,0.160,751.0,01.17,0.508
2014-05-09 02:08:00,2878E-2,5C000400,-0724,1050,10102,026.0,045.3,0.160,750.9,01.17,0.508
2014-05-09 02:09:00,2911E-2,5C000400,-0724,1050,10157,026.0,045.2,0.160,750.9,01.17,0.508
2014-05-09 02:10:00,2913E-2,5C000400,-0724,1050,10048,026.0,045.3,0.160,750.9,01.17,0.508
2014-05-09 02:11:00,2887E-2,5C000400,-0724,1052,10039,026.0,045.2,0.160,750.9,01.17,0.508
2014-05-09 02:12:00,2847E-2,5C000400,-0724,1051,10149,026.1,045.3,0.160,750.9,01.17,0.508
2014-05-09 02:13:00,2880E-2,5C000410,-0724,1052,10046,026.0,045.3,0.160,750.9,01.17,0.508
2014-05-09 02:14:00,2889E-2,5C000400,-0724,1052,10049,026.0,045.2,0.160,750.9,01.17,0.508
2014-05-09 02:15:00,2855E-2,5C000410,-0724,1053,9793,026.1,045.2,0.160,750.8,01.17,0.508
2014-05-09 02:16:00,2910E-2,5C000400,-0724,1053,10053,026.1,045.2,0.160,750.9,01.17,0.508
2014-05-09 02:17:00,2879E-2,5C000410,-0724,1054,9669,026.1,045.3,0.160,750.9,01.17,0.508
2014-05-09 02:18:00,2873E-2,5C000400,-0724,1054,10084,026.1,045.3,0.160,750.9,01.17,0.508
2014-05-09 02:19:00,2891E-2,5C000400,-0724,1055,9974,026.1,045.3,0.160,750.9,01.17,0.508
2014-05-09 02:20:00,2913E-2,5C000410,-0724,1055,10033,026.1,045.3,0.160,750.8,01.17,0.508
2014-05-09 02:21:00,2861E-2,5C000400,-0724,1055,9964,026.1,045.2,0.160,750.8,01.17,0.508
2014-05-09 02:22:00,2894E-2,5C000400,-0724,1057,9782,026.1,045.2,0.160,750.9,01.17,0.508
2014-05-09 02:23:00,2891E-2,5C000400,-0724,1057,10175,026.1,045.2,0.160,750.8,01.17,0.508
2014-05-09 02:24:00,2914E-2,5C000410,-0724,1057,10122,026.1,045.3,0.160,750.8,01.17,0.508
2014-05-09 02:25:00,2886E-2,5C000410,-0724,1054,10047,026.1,045.2,0.160,750.8,01.17,0.508
2014-05-09 02:26:00,2911E-2,5C000410,-0724,1056,10021,026.1,045.2,0.160,750.9,01.17,0.508
2014-05-09 02:27:00,2877E-2,5C000410,-0724,1056,9971,026.1,045.3,0.160,750.9,01.17,0.508
2014-05-09 02:28:00,2907E-2,5C000410,-0724,1057,9956,026.1,045.3,0.160,750.8,01.17,0.508
2014-05-09 02:29:00,2909E-2,5C000400,-0724,1059,9827,026.1,045.3,0.160,750.8,01.17,0.508
2014-05-09 02:30:00,2908E-2,5C000410,-0724,1059,9931,026.1,045.3,0.160,750.9,01.17,0.508
2014-05-09 02:31:00,2903E-2,5C000410,-0724,1059,9907,026.1,045.3,0.160,750.8,01.17,0.508
2014-05-09 02:32:00,2886E-2,5C000410,-0724,1058,10051,026.2,045.3,0.160,750.8,01.17,0.508
2014-05-09 02:33:00,2884E-2,5C000410,-0724,1059,10017,026.2,045.3,0.160,750.8,01.17,0.508
2014-05-09 02:34:00,2917E-2,5C000410,-0724,1059,9961,026.2,045.3,0.160,750.8,01.17,0.508
2014-05-09 02:35:00,2905E-2,5C000410,-0724,1060,9714,026.2,045.3,0.160,750.8,01.17,0.508
2014-05-09 02:36:00,2937E-2,5C000410,-0724,1059,9771,026.2,045.2,0.160,750.8,01.17,0.508
2014-05-09 02:37:00,2905E-2,5C000410,-0724,1060,9823,026.2,045.3,0.160,750.8,01.17,0.508
2014-05-09 02:38:00,2933E-2,5C000400,-0724,1062,10071,026.2,045.3,0.160,750.7,01.17,0.508
2014-05-09 02:39:00,2905E-2,5C000410,-0724,1062,9842,026.2,045.2,0.160,750.8,01.17,0.508
2014-05-09 02:40:00,2905E-2,5C000410,-0724,1061,9853,026.2,045.3,0.160,750.7,01.17,0.508
2014-05-09 02:41:00,2896E-2,5C000410,-0724,1062,9872,026.2,045.3,0.160,750.8,01.17,0.508
2014-05-09 02:42:00,2929E-2,5C000410,-0724,1062,9980,026.2,045.3,0.160,750.8,01.17,0.508
2014-05-09 02:43:00,2922E-2,5C000410,-0724,1062,9920,026.2,045.3,0.160,750.8,01.17,0.508
2014-05-09 02:44:00,2902E-2,5C000410,-0724,1063,10017,026.2,045.3,0.160,750.8,01.17,0.508
2014-05-09 02:45:00,2970E-2,5C000410,-0724,1063,9775,026.3,045.3,0.160,750.7,01.17,0.508
2014-05-09 02:46:00,2894E-2,5C000400,-0724,1063,9916,026.2,045.3,0.160,750.8,01.17,0.508
2014-05-09 02:47:00,2910E-2,5C000410,-0724,1063,9828,026.2,045.3,0.160,750.8,01.17,0.508
2014-05-09 02:48:00,2918E-2,5C000410,-0724,1064,9951,026.3,045.3,0.160,750.9,01.17,0.508
2014-05-09 02:49:00,2912E-2,5C000410,-0724,1064,9965,026.3,045.3,0.160,750.8,01.17,0.508
2014-05-09 02:50:00,2913E-2,5C000410,-0724,1064,9865,026.3,045.3,0.160,750.8,01.17,0.508
2014-05-09 02:51:00,2933E-2,5C000410,-0724,1063,9766,026.3,045.3,0.160,750.8,01.17,0.508
2014-05-09 02:52:00,2910E-2,5C000410,-0724,1065,9757,026.2,045.3,0.160,750.9,01.17,0.508
2014-05-09 02:53:00,2899E-2,5C000410,-0724,1065,9845,026.3,045.3,0.160,750.9,01.17,0.508
2014-05-09 02:54:00,2921E-2,5C000410,-0724,1066,9772,026.3,045.3,0.160,750.9,01.17,0.508
2014-05-09 02:55:00,2926E-2,5C000410,-0724,1065,9757,026.3,045.3,0.160,750.9,01.17,0.508
2014-05-09 02:56:00,2921E-2,5C000410,-0724,1066,9767,026.3,045.2,0.160,750.8,01.17,0.508
2014-05-09 02:57:00,2930E-2,5C000410,-0724,1067,9955,026.3,045.2,0.160,750.9,01.17,0.508
2014-05-09 02:58:00,2938E-2,5C000410,-0724,1067,9850,026.3,045.3,0.160,750.9,01.17,0.508
2014-05-09 02:59:00,2909E-2,5C000410,-0724,1068,9734,026.3,045.3,0.160,751.0,01.17,0.508
2014-05-09 03:00:00,2936E-2,5C000410,-0724,1069,9946,026.3,045.3,0.160,750.9,01.17,0.508
2014-05-09 03:01:00,2941E-2,5C000410,-0724,1068,9946,026.3,045.3,0.160,750.8,01.17,0.508
2014-05-09 03:02:00,2907E-2,5C000410,-0724,1067,9902,026.3,045.3,0.160,750.9,01.17,0.508
2014-05-09 03:03:00,2896E-2,5C000410,-0724,1068,9959,026.3,045.3,0.160,750.9,01.17,0.508
2014-05-09 03:04:00,2870E-2,5C000400,-0724,1069,9936,026.3,045.3,0.159,751.0,01.17,0.508
2014-05-09 03:05:00,2911E-2,5C000410,-0724,1070,9867,026.3,045.2,0.159,750.9,01.17,0.508
2014-05-09 03:06:00,2940E-2,5C000410,-0724,1070,9711,026.4,045.3,0.160,750.9,01.17,0.508
2014-05-09 03:07:00,2938E-2,5C000410,-0724,1069,9769,026.4,045.2,0.159,750.9,01.17,0.508
2014-05-09 03:08:00,2966E-2,5C000410,-0724,1070,9829,026.4,045.2,0.159,750.9,01.17,0.508
2014-05-09 03:09:00,3011E-2,5C000410,-0724,1071,9727,026.4,045.3,0.159,750.9,01.17,0.508
2014-05-09 03:10:00,2946E-2,5C000410,-0724,1070,9748,026.4,045.3,0.160,751.0,01.17,0.508
2014-05-09 03:11:00,2978E-2,5C000410,-0724,1071,9751,026.4,045.3,0.159,750.9,01.17,0.508
2014-05-09 03:12:00,2977E-2,5C000410,-0724,1071,9718,026.4,045.3,0.159,750.9,01.17,0.508
2014-05-09 03:13:00,2957E-2,5C000410,-0724,1071,9751,026.4,045.3,0.159,750.9,01.17,0.508
2014-05-09 03:14:00,2971E-2,5C000410,-0724,1071,9729,026.4,045.3,0.159,751.0,01.17,0.508
2014-05-09 03:15:00,2983E-2,5C000410,-0724,1070,9838,026.4,045.3,0.159,751.0,01.17,0.508
2014-05-09 03:16:00,2957E-2,5C000410,-0724,1072,9889,026.4,045.3,0.159,751.0,01.17,0.508
2014-05-09 03:17:00,2977E-2,5C000410,-0724,1072,9751,026.4,045.3,0.159,751.0,01.17,0.508
2014-05-09 03:18:00,2927E-2,5C000410,-0724,1070,9831,026.4,045.3,0.159,751.0,01.17,0.508
2014-05-09 03:19:00,2980E-2,5C000410,-0724,1071,9838,026.4,045.3,0.159,751.0,01.17,0.508
2014-05-09 03:20:00,2979E-2,5C000410,-0724,1070,9743,026.4,045.3,0.159,751.0,01.17,0.508
2014-05-09 03:21:00,2987E-2,5C000410,-0724,1071,9685,026.4,045.3,0.159,751.0,01.17,0.508
2014-05-09 03:22:00,2938E-2,5C000410,-0724,1072,9915,026.5,045.3,0.159,751.0,01.17,0.508
2014-05-09 03:23:00,2953E-2,5C000400,-0724,1072,9885,026.5,045.3,0.159,751.0,01.17,0.508
2014-05-09 03:24:00,2955E-2,5C000410,-0724,1072,9975,026.4,045.3,0.159,751.0,01.17,0.508
2014-05-09 03:25:00,2954E-2,5C000410,-0724,1071,9721,026.5,045.3,0.159,751.0,01.17,0.508
2014-05-09 03:26:00,2925E-2,5C000410,-0724,1072,9873,026.5,045.3,0.159,751.0,01.17,0.508
2014-05-09 03:27:00,2970E-2,5C000410,-0724,1072,9954,026.5,045.3,0.159,751.0,01.17,0.508
2014-05-09 03:28:00,2958E-2,5C000410,-0724,1072,9754,026.5,045.3,0.159,751.0,01.17,0.508
2014-05-09 03:29:00,2987E-2,5C000410,-0724,1071,9823,026.5,045.3,0.159,751.0,01.17,0.508
2014-05-09 03:30:00,2981E-2,5C000410,-0724,1073,9753,026.5,045.3,0.159,751.1,01.17,0.508
2014-05-09 03:31:00,2928E-2,5C000410,-0724,1072,9879,026.5,045.3,0.159,751.0,01.17,0.508
2014-05-09 03:32:00,2998E-2,5C000410,-0724,1072,9853,026.5,045.3,0.159,751.0,01.17,0.508
2014-05-09 03:33:00,2972E-2,5C000410,-0724,1073,9702,026.5,045.3,0.159,751.0,01.17,0.508
2014-05-09 03:34:00,2961E-2,5C000410,-0724,1072,9859,026.5,045.3,0.159,751.0,01.17,0.508
2014-05-09 03:35:00,2957E-2,5C000410,-0724,1073,9806,026.5,045.3,0.159,751.0,01.17,0.508
2014-05-09 03:36:00,2966E-2,5C000410,-0724,1073,9923,026.5,045.3,0.159,751.0,01.17,0.508
2014-05-09 03:37:00,2945E-2,5C000410,-0724,1074,9838,026.5,045.3,0.159,751.0,01.17,0.508
2014-05-09 03:38:00,2939E-2,5C000410,-0724,1074,9821,026.5,045.3,0.159,751.1,01.17,0.508
2014-05-09 03:39:00,2925E-2,5C000410,-0724,1074,9639,026.5,045.3,0.159,751.0,01.17,0.508
2014-05-09 03:40:00,2942E-2,5C000410,-0724,1075,9829,026.5,045.2,0.159,751.1,01.17,0.508
2014-05-09 03:41:00,2994E-2,5C000410,-0724,1076,9799,026.5,045.3,0.159,751.1,01.17,0.508
2014-05-09 03:42:00,2990E-2,5C000410,-0724,1075,9774,026.5,045.3,0.159,751.1,01.17,0.508
2014-05-09 03:43:00,2983E-2,5C000410,-0724,1074,9931,026.5,045.3,0.159,751.0,01.17,0.508
2014-05-09 03:44:00,2923E-2,5C000410,-0724,1076,9834,026.5,045.3,0.159,751.1,01.17,0.508
2014-05-09 03:45:00,2975E-2,5C000410,-0724,1075,9726,026.6,045.3,0.159,751.1,01.17,0.508
2014-05-09 03:46:00,2939E-2,5C000410,-0724,1076,9755,026.5,045.3,0.159,751.1,01.17,0.508
2014-05-09 03:47:00,2979E-2,5C000410,-0724,1076,9724,026.5,045.3,0.159,751.1,01.17,0.508
2014-05-09 03:48:00,3034E-2,5C000410,-0724,1076,9967,026.6,045.3,0.159,751.0,01.17,0.508
2014-05-09 03:49:00,2985E-2,5C000410,-0724,1075,9806,026.6,045.3,0.159,751.1,01.17,0.508
2014-05-09 03:50:00,2984E-2,5C000410,-0724,1076,9776,026.6,045.3,0.159,751.1,01.17,0.508
2014-05-09 03:51:00,2956E-2,5C000410,-0724,1076,9576,026.6,045.3,0.159,751.1,01.17,0.508
2014-05-09 03:52:00,2942E-2,5C000410,-0724,1076,9765,026.6,045.3,0.159,751.1,01.17,0.508
2014-05-09 03:53:00,2983E-2,5C000410,-0724,1075,9715,026.6,045.3,0.159,751.1,01.17,0.508
2014-05-09 03:54:00,2945E-2,5C000410,-0724,1076,9935,026.6,045.3,0.159,751.0,01.17,0.508
2014-05-09 03:55:00,2977E-2,5C000410,-0724,1075,9602,026.6,045.3,0.159,751.1,01.17,0.508
2014-05-09 03:56:00,2930E-2,5C000410,-0724,1075,9792,026.6,045.3,0.159,751.2,01.17,0.508
2014-05-09 03:57:00,2979E-2,5C000410,-0724,1076,9691,026.6,045.3,0.159,751.2,01.17,0.508
2014-05-09 03:58:00,2960E-2,5C000410,-0724,1076,9798,026.6,045.3,0.159,751.1,01.17,0.508
2014-05-09 03:59:00,2993E-2,5C000410,-0724,1076,9698,026.6,045.2,0.159,751.1,01.17,0.508
2014-05-09 04:00:00,2961E-2,5C000410,-0724,1075,9856,026.7,045.3,0.159,751.1,01.17,0.508
2014-05-09 04:01:00,2955E-2,5C000410,-0724,1076,9766,026.6,045.3,0.159,751.1,01.17,0.508
2014-05-09 04:02:00,2982E-2,5C000410,-0724,1075,9869,026.7,045.3,0.159,751.2,01.17,0.508
2014-05-09 04:03:00,2958E-2,5C000410,-0724,1075,9858,026.6,045.3,0.159,751.2,01.17,0.508
2014-05-09 04:04:00,2947E-2,5C000410,-0724,1075,9917,026.7,045.3,0.159,751.1,01.17,0.508
2014-05-09 04:05:00,2947E-2,5C000410,-0724,1074,9800,026.7,045.3,0.159,751.1,01.17,0.508
2014-05-09 04:06:00,2971E-2,5C000410,-0724,1075,9831,026.7,045.3,0.159,751.2,01.17,0.508
2014-05-09 04:07:00,2933E-2,5C000410,-0724,1077,9736,026.7,045.3,0.159,751.1,01.17,0.508
2014-05-09 04:08:00,2955E-2,5C000410,-0724,1076,9702,026.7,045.3,0.159,751.1,01.17,0.508
2014-05-09 04:09:00,2968E-2,5C000410,-0724,1075,9889,026.7,045.3,0.159,751.1,01.17,0.508
2014-05-09 04:10:00,3017E-2,5C000410,-0724,1076,9975,026.7,045.3,0.159,751.2,01.17,0.508
2014-05-09 04:11:00,2999E-2,5C000410,-0724,1075,9758,026.7,045.3,0.159,751.2,01.17,0.508
2014-05-09 04:12:00,2949E-2,5C000410,-0724,1076,9931,026.7,045.3,0.159,751.1,01.17,0.508
2014-05-09 04:13:00,2929E-2,5C000410,-0724,1076,9720,026.7,045.3,0.159,751.2,01.17,0.508
2014-05-09 04:14:00,2965E-2,5C000410,-0724,1074,9801,026.7,045.3,0.159,751.2,01.17,0.508
2014-05-09 04:15:00,2969E-2,5C000410,-0724,1075,9687,026.7,045.3,0.159,751.2,01.17,0.508
2014-05-09 04:16:00,2947E-2,5C000410,-0724,1076,9677,026.7,045.3,0.159,751.2,01.17,0.508
2014-05-09 04:17:00,3003E-2,5C000410,-0724,1076,9777,026.7,045.3,0.159,751.1,01.17,0.508
2014-05-09 04:18:00,3006E-2,5C000410,-0724,1076,9736,026.7,045.2,0.158,751.1,01.17,0.508
2014-05-09 04:19:00,3003E-2,5C000410,-0724,1076,9783,026.7,045.3,0.159,751.2,01.17,0.508
2014-05-09 04:20:00,2982E-2,5C000410,-0724,1076,9831,026.7,045.3,0.159,751.2,01.17,0.508
2014-05-09 04:21:00,2984E-2,5C000410,-0724,1076,9773,026.7,045.3,0.159,751.2,01.17,0.508
2014-05-09 04:22:00,2975E-2,5C000410,-0724,1076,9781,026.7,045.3,0.159,751.2,01.17,0.508